Location: Nag� el Ma?a??a
(24.0667°N, 32.8833°E)
Time: 16:30:40
(UTC+00:00)

SJ 16-02 - Pass Details

Date: 25 September 2021
Orbit: 605 x 617 km, 75.0° (Epoch: 17 October)

Event Time Altitude Azimuth Distance (km) Brightness Sun altitude
Rises 02:53:50 0° 10° (N) 2,880 5.0 -10.9°
Reaches altitude 10° 02:56:54 10° 33° (NNE) 1,971 4.5 -10.2°
Maximum altitude 02:59:34 16° 70° (ENE) 1,625 4.7 -9.6°
Drops below altitude 10° 03:02:13 10° 108° (ESE) 1,962 5.2 -9.0°
Sets 03:05:14 0° 130° (SE) 2,860 5.6 -8.3°
